Time,TemperatureF,DewpointF,PressureIn,WindDirection,WindDirectionDegrees,WindSpeedMPH,WindSpeedGustMPH,Humidity,HourlyPrecipIn,Conditions,Clouds,dailyrainin,SoftwareType,DateUTC
2013-11-29 00:09:00,25.9,21.5,30.39,North,0,0.0,-999.0,83,-99.99,,,0.00,Acu-Link.com,2013-11-29 05:09:00,
2013-11-29 00:24:00,25.7,21.0,30.38,North,0,0.0,-999.0,82,-99.99,,,0.00,Acu-Link.com,2013-11-29 05:24:00,
2013-11-29 00:39:00,25.5,20.8,30.39,North,0,0.0,-999.0,82,-99.99,,,0.00,Acu-Link.com,2013-11-29 05:39:00,
2013-11-29 00:54:00,25.5,21.4,30.38,North,0,0.0,-999.0,84,-99.99,,,0.00,Acu-Link.com,2013-11-29 05:54:00,
2013-11-29 01:09:00,25.0,20.6,30.39,North,0,0.0,-999.0,83,-99.99,,,0.00,Acu-Link.com,2013-11-29 06:09:00,
2013-11-29 01:25:00,25.0,20.6,30.39,North,0,0.0,-999.0,83,-99.99,,,0.00,Acu-Link.com,2013-11-29 06:25:00,
2013-11-29 01:40:00,24.6,20.2,30.39,North,0,0.0,-999.0,83,-99.99,,,0.00,Acu-Link.com,2013-11-29 06:40:00,
2013-11-29 01:55:00,24.6,20.2,30.39,North,0,0.0,-999.0,83,-99.99,,,0.00,Acu-Link.com,2013-11-29 06:55:00,
2013-11-29 02:10:00,24.3,19.6,30.38,North,0,0.0,-999.0,82,-99.99,,,0.00,Acu-Link.com,2013-11-29 07:10:00,
2013-11-29 02:25:00,24.3,19.6,30.38,North,0,0.0,-999.0,82,-99.99,,,0.00,Acu-Link.com,2013-11-29 07:25:00,
2013-11-29 02:40:00,24.3,19.6,30.37,North,0,0.0,-999.0,82,-99.99,,,0.00,Acu-Link.com,2013-11-29 07:40:00,
2013-11-29 02:55:00,24.3,19.6,30.38,North,0,0.0,-999.0,82,-99.99,,,0.00,Acu-Link.com,2013-11-29 07:55:00,
2013-11-29 03:10:00,24.1,19.4,30.38,North,0,0.0,-999.0,82,-99.99,,,0.00,Acu-Link.com,2013-11-29 08:10:00,
2013-11-29 03:26:00,23.9,19.2,30.38,North,0,0.0,-999.0,82,-99.99,,,0.00,Acu-Link.com,2013-11-29 08:26:00,
2013-11-29 03:41:00,24.1,19.4,30.39,North,0,0.0,-999.0,82,-99.99,,,0.00,Acu-Link.com,2013-11-29 08:41:00,
2013-11-29 03:56:00,24.1,19.7,30.39,North,0,0.0,-999.0,83,-99.99,,,0.00,Acu-Link.com,2013-11-29 08:56:00,
2013-11-29 04:11:00,24.1,19.7,30.39,North,0,0.0,-999.0,83,-99.99,,,0.00,Acu-Link.com,2013-11-29 09:11:00,
2013-11-29 04:26:00,23.7,19.3,30.39,North,0,0.0,-999.0,83,-99.99,,,0.00,Acu-Link.com,2013-11-29 09:26:00,
2013-11-29 04:41:00,23.7,19.0,30.38,North,0,0.0,-999.0,82,-99.99,,,0.00,Acu-Link.com,2013-11-29 09:41:00,
2013-11-29 04:56:00,23.5,19.1,30.39,West,270,0.0,-999.0,83,-99.99,,,0.00,Acu-Link.com,2013-11-29 09:56:00,
2013-11-29 05:11:00,23.4,19.3,30.39,ESE,112,0.0,-999.0,84,-99.99,,,0.00,Acu-Link.com,2013-11-29 10:11:00,
2013-11-29 05:26:00,23.2,18.8,30.39,ESE,112,0.0,-999.0,83,-99.99,,,0.00,Acu-Link.com,2013-11-29 10:26:00,
2013-11-29 05:42:00,23.2,18.8,30.39,West,270,0.0,-999.0,83,-99.99,,,0.00,Acu-Link.com,2013-11-29 10:42:00,
2013-11-29 05:57:00,23.2,19.1,30.40,West,270,0.0,-999.0,84,-99.99,,,0.00,Acu-Link.com,2013-11-29 10:57:00,
2013-11-29 06:12:00,23.0,18.6,30.40,West,270,0.0,-999.0,83,-99.99,,,0.00,Acu-Link.com,2013-11-29 11:12:00,
2013-11-29 06:27:00,23.0,18.6,30.41,WNW,292,0.0,-999.0,83,-99.99,,,0.00,Acu-Link.com,2013-11-29 11:27:00,
2013-11-29 06:42:00,22.8,18.4,30.41,NW,315,0.0,-999.0,83,-99.99,,,0.00,Acu-Link.com,2013-11-29 11:42:00,
2013-11-29 06:57:00,22.8,18.4,30.42,WNW,292,0.0,-999.0,83,-99.99,,,0.00,Acu-Link.com,2013-11-29 11:57:00,
2013-11-29 07:13:00,22.6,18.2,30.43,ESE,112,0.0,-999.0,83,-99.99,,,0.00,Acu-Link.com,2013-11-29 12:13:00,
2013-11-29 07:28:00,22.6,17.9,30.43,West,270,0.0,-999.0,82,-99.99,,,0.00,Acu-Link.com,2013-11-29 12:28:00,
2013-11-29 07:43:00,22.8,18.1,30.43,SE,135,0.0,-999.0,82,-99.99,,,0.00,Acu-Link.com,2013-11-29 12:43:00,
2013-11-29 07:58:00,23.0,18.9,30.44,NNW,337,0.0,-999.0,84,-99.99,,,0.00,Acu-Link.com,2013-11-29 12:58:00,
2013-11-29 08:13:00,23.7,19.6,30.44,NNW,337,0.0,-999.0,84,-99.99,,,0.00,Acu-Link.com,2013-11-29 13:13:00,
2013-11-29 08:28:00,24.4,20.3,30.44,West,270,0.0,-999.0,84,-99.99,,,0.00,Acu-Link.com,2013-11-29 13:28:00,
2013-11-29 08:43:00,25.5,21.6,30.44,East,90,0.0,-999.0,85,-99.99,,,0.00,Acu-Link.com,2013-11-29 13:43:00,
2013-11-29 08:59:00,28.4,24.8,30.45,West,270,0.0,-999.0,86,-99.99,,,0.00,Acu-Link.com,2013-11-29 13:59:00,
2013-11-29 09:14:00,29.7,26.0,30.44,West,270,0.0,-999.0,86,-99.99,,,0.00,Acu-Link.com,2013-11-29 14:14:00,
2013-11-29 09:29:00,31.5,28.1,30.45,SW,225,0.0,-999.0,87,-99.99,,,0.00,Acu-Link.com,2013-11-29 14:29:00,
2013-11-29 09:44:00,33.6,29.6,30.45,NW,315,1.1,-999.0,85,-99.99,,,0.00,Acu-Link.com,2013-11-29 14:44:00,
2013-11-29 09:59:00,35.2,29.7,30.46,South,180,0.0,-999.0,80,-99.99,,,0.00,Acu-Link.com,2013-11-29 14:59:00,
2013-11-29 10:14:00,36.5,30.9,30.47,ESE,112,0.0,-999.0,80,-99.99,,,0.00,Acu-Link.com,2013-11-29 15:14:00,
2013-11-29 10:29:00,38.5,29.2,30.47,South,180,0.0,-999.0,69,-99.99,,,0.00,Acu-Link.com,2013-11-29 15:29:00,
2013-11-29 10:44:00,40.8,29.2,30.47,East,90,2.2,-999.0,63,-99.99,,,0.00,Acu-Link.com,2013-11-29 15:44:00,
2013-11-29 10:59:00,43.2,27.2,30.47,WSW,247,0.0,-999.0,53,-99.99,,,0.00,Acu-Link.com,2013-11-29 15:59:00,
2013-11-29 11:15:00,45.0,25.0,30.46,East,90,2.2,-999.0,45,-99.99,,,0.00,Acu-Link.com,2013-11-29 16:15:00,
2013-11-29 11:30:00,46.0,25.3,30.45,West,270,0.0,-999.0,44,-99.99,,,0.00,Acu-Link.com,2013-11-29 16:30:00,
2013-11-29 11:45:00,47.5,23.2,30.45,ENE,67,0.0,-999.0,38,-99.99,,,0.00,Acu-Link.com,2013-11-29 16:45:00,
2013-11-29 12:00:00,49.1,24.0,30.44,South,180,1.7,-999.0,37,-99.99,,,0.00,Acu-Link.com,2013-11-29 17:00:00,
2013-11-29 12:15:00,51.1,23.7,30.44,South,180,1.1,-999.0,34,-99.99,,,0.00,Acu-Link.com,2013-11-29 17:15:00,
2013-11-29 12:30:00,52.0,20.7,30.44,ESE,112,1.1,-999.0,29,-99.99,,,0.00,Acu-Link.com,2013-11-29 17:30:00,
2013-11-29 12:45:00,53.2,21.0,30.43,North,0,1.7,-999.0,28,-99.99,,,0.00,Acu-Link.com,2013-11-29 17:45:00,
2013-11-29 13:00:00,53.4,22.8,30.42,ESE,112,0.0,-999.0,30,-99.99,,,0.00,Acu-Link.com,2013-11-29 18:00:00,
2013-11-29 13:15:00,53.8,23.1,30.42,ESE,112,0.0,-999.0,30,-99.99,,,0.00,Acu-Link.com,2013-11-29 18:15:00,
2013-11-29 13:31:00,54.1,24.9,30.42,NNE,22,2.2,-999.0,32,-99.99,,,0.00,Acu-Link.com,2013-11-29 18:31:00,
2013-11-29 13:46:00,54.9,24.1,30.41,ESE,112,1.7,-999.0,30,-99.99,,,0.00,Acu-Link.com,2013-11-29 18:46:00,
2013-11-29 14:01:00,54.5,25.3,30.40,NNE,22,0.0,-999.0,32,-99.99,,,0.00,Acu-Link.com,2013-11-29 19:01:00,
2013-11-29 14:16:00,55.2,25.9,30.40,SSE,157,0.0,-999.0,32,-99.99,,,0.00,Acu-Link.com,2013-11-29 19:16:00,
2013-11-29 14:31:00,54.7,25.4,30.40,ESE,112,1.1,-999.0,32,-99.99,,,0.00,Acu-Link.com,2013-11-29 19:31:00,
2013-11-29 14:46:00,55.4,26.8,30.40,East,90,1.7,-999.0,33,-99.99,,,0.00,Acu-Link.com,2013-11-29 19:46:00,
2013-11-29 15:01:00,55.8,26.4,30.39,SE,135,0.0,-999.0,32,-99.99,,,0.00,Acu-Link.com,2013-11-29 20:01:00,
2013-11-29 15:16:00,54.3,25.8,30.39,ESE,112,1.1,-999.0,33,-99.99,,,0.00,Acu-Link.com,2013-11-29 20:16:00,
2013-11-29 15:31:00,53.6,26.6,30.39,ESE,112,0.0,-999.0,35,-99.99,,,0.00,Acu-Link.com,2013-11-29 20:31:00,
2013-11-29 15:47:00,52.5,27.0,30.41,ESE,112,0.0,-999.0,37,-99.99,,,0.00,Acu-Link.com,2013-11-29 20:47:00,
2013-11-29 16:02:00,51.8,27.0,30.41,ESE,112,0.0,-999.0,38,-99.99,,,0.00,Acu-Link.com,2013-11-29 21:02:00,
2013-11-29 16:17:00,50.7,28.5,30.41,East,90,1.1,-999.0,42,-99.99,,,0.00,Acu-Link.com,2013-11-29 21:17:00,
2013-11-29 16:32:00,50.0,28.4,30.41,ESE,112,0.0,-999.0,43,-99.99,,,0.00,Acu-Link.com,2013-11-29 21:32:00,
2013-11-29 16:47:00,48.7,28.3,30.41,ESE,112,0.0,-999.0,45,-99.99,,,0.00,Acu-Link.com,2013-11-29 21:47:00,
2013-11-29 17:02:00,48.0,28.7,30.41,North,0,0.0,-999.0,47,-99.99,,,0.00,Acu-Link.com,2013-11-29 22:02:00,
2013-11-29 17:17:00,46.9,28.2,30.41,NNW,337,0.0,-999.0,48,-99.99,,,0.00,Acu-Link.com,2013-11-29 22:17:00,
2013-11-29 17:32:00,45.5,28.4,30.41,NNW,337,0.0,-999.0,51,-99.99,,,0.00,Acu-Link.com,2013-11-29 22:32:00,
2013-11-29 17:47:00,43.9,28.8,30.42,NNW,337,0.0,-999.0,55,-99.99,,,0.00,Acu-Link.com,2013-11-29 22:47:00,
2013-11-29 18:03:00,42.3,28.6,30.42,NNW,337,0.0,-999.0,58,-99.99,,,0.00,Acu-Link.com,2013-11-29 23:03:00,
2013-11-29 18:18:00,41.0,30.2,30.44,WNW,292,0.0,-999.0,65,-99.99,,,0.00,Acu-Link.com,2013-11-29 23:18:00,
2013-11-29 18:33:00,39.7,29.3,30.45,WNW,292,0.0,-999.0,66,-99.99,,,0.00,Acu-Link.com,2013-11-29 23:33:00,
2013-11-29 18:48:00,38.5,29.2,30.46,WNW,292,0.0,-999.0,69,-99.99,,,0.00,Acu-Link.com,2013-11-29 23:48:00,
2013-11-29 19:03:00,37.2,29.7,30.47,West,270,0.0,-999.0,74,-99.99,,,0.00,Acu-Link.com,2013-11-30 00:03:00,
2013-11-29 19:18:00,36.1,29.3,30.47,West,270,0.0,-999.0,76,-99.99,,,0.00,Acu-Link.com,2013-11-30 00:18:00,
2013-11-29 19:33:00,35.2,29.0,30.47,WNW,292,0.0,-999.0,78,-99.99,,,0.00,Acu-Link.com,2013-11-30 00:33:00,
2013-11-29 19:48:00,34.3,28.5,30.47,WNW,292,0.0,-999.0,79,-99.99,,,0.00,Acu-Link.com,2013-11-30 00:48:00,
2013-11-29 20:03:00,33.6,27.5,30.47,WNW,292,0.0,-999.0,78,-99.99,,,0.00,Acu-Link.com,2013-11-30 01:03:00,
2013-11-29 20:18:00,32.9,27.4,30.48,WNW,292,0.0,-999.0,80,-99.99,,,0.00,Acu-Link.com,2013-11-30 01:18:00,
2013-11-29 20:34:00,32.4,27.2,30.48,WSW,247,0.0,-999.0,81,-99.99,,,0.00,Acu-Link.com,2013-11-30 01:34:00,
2013-11-29 20:49:00,31.8,26.6,30.48,WSW,247,0.0,-999.0,81,-99.99,,,0.00,Acu-Link.com,2013-11-30 01:49:00,
2013-11-29 21:04:00,31.3,26.5,30.48,West,270,0.0,-999.0,82,-99.99,,,0.00,Acu-Link.com,2013-11-30 02:04:00,
2013-11-29 21:19:00,30.9,26.4,30.47,West,270,0.0,-999.0,83,-99.99,,,0.00,Acu-Link.com,2013-11-30 02:19:00,
2013-11-29 21:34:00,30.4,26.2,30.47,West,270,0.0,-999.0,84,-99.99,,,0.00,Acu-Link.com,2013-11-30 02:34:00,
2013-11-29 21:49:00,30.2,26.0,30.48,West,270,0.0,-999.0,84,-99.99,,,0.00,Acu-Link.com,2013-11-30 02:49:00,
2013-11-29 22:04:00,29.8,25.6,30.48,West,270,0.0,-999.0,84,-99.99,,,0.00,Acu-Link.com,2013-11-30 03:04:00,
2013-11-29 22:19:00,29.3,25.1,30.48,West,270,0.0,-999.0,84,-99.99,,,0.00,Acu-Link.com,2013-11-30 03:19:00,
2013-11-29 22:34:00,29.1,24.9,30.48,West,270,0.0,-999.0,84,-99.99,,,0.00,Acu-Link.com,2013-11-30 03:34:00,
2013-11-29 22:50:00,28.9,25.0,30.49,West,270,0.0,-999.0,85,-99.99,,,0.00,Acu-Link.com,2013-11-30 03:50:00,
2013-11-29 23:05:00,28.9,25.0,30.50,West,270,0.0,-999.0,85,-99.99,,,0.00,Acu-Link.com,2013-11-30 04:05:00,
2013-11-29 23:20:00,28.9,25.0,30.50,West,270,0.0,-999.0,85,-99.99,,,0.00,Acu-Link.com,2013-11-30 04:20:00,
2013-11-29 23:35:00,28.9,25.2,30.49,West,270,0.0,-999.0,86,-99.99,,,0.00,Acu-Link.com,2013-11-30 04:35:00,
2013-11-29 23:50:00,28.9,25.2,30.50,West,270,1.1,-999.0,86,-99.99,,,0.00,Acu-Link.com,2013-11-30 04:50:00,